Esbjerg, Denmark

07:23 AM CEST am 28. Juni 2017 (GMT +0200)
Esbjerg

Wetter Verlauf für EKEB - April, 2017

Change the Weather History Date:

Freitag, April 21, 2017

  Actual Average Record
Temperature  
mittlereTemperatur 46 °F -  
Max. Temperatur 51 °F 55 °F 71 °F (2011)
Min.Temperatur 41 °F 42 °F 28 °F (2005)
Degree Days  
Heizgradtage 19    
Moisture  
Taupunkt 44 °F    
Average Humidity 91    
Maximum Humidity 100    
Minimum Humidity 70    
Niederschlag  
Niederschlag 0.00 inch - - ()
Luftdruck in Meereshöhe  
Luftdruck in Meereshöhe 30.14 inch    
Wind  
Windgeschwindigkeit 14 mph ()    
Max. Windgeschwindigkeit 26 mph    
Max Gust Speed -    
Sichtweite 5.6 Meilen    
Ereignisse Regen    
Averages and records for this station are not official NWS values.
T = Trace of Precipitation, MM = Missing Value Source: Averaged Metar Reports

Daily Weather History Graph

Daily Weather History Graph

Search for Another Location

Airport or City:

Trip Planner

Search our weather history database for the weather conditions in past years. The results will help you decide how hot, cold, wet, or windy it might be!

Date:

Astronomie

Apr. 21, 2017 Aufgang Untergang
Genaue Zeit 06:06 CEST 20:43 CEST
Bürgerliche Dämmerung 05:25 CEST 21:24 CEST
Nautische Dämmerung 04:32 CEST 22:18 CEST
Astronomische Dämmerung 03:25 CEST 23:27 CEST
Mond 04:23 CEST (4/21) 14:02 CEST (4/21)
Länge des sichtbaren Lichts 15h 59m
Tageslänge
14h 36m
Letztes Viertel, 30% of the Moon is Illuminated
Apr 21
Letztes Viertel
Apr 26
Neu
Mai 3
Erstes Viertel
Mai 10
Vollmond
Mai 19
Letztes Viertel

Hourly Weather History & Observations

Zeit (CEST) Temp. Windchill Taupunkt Feuchtigkeit Druck Sichtweite Wind Dir Windgeschwindigkeit Böengeschwindigkeit Precip Ereignisse Wetterzustand
12:20 AM 44.6 °F 38.1 °F 44.6 °F 100% 30.33 inch 0.9 mi West 13.8 mph - N/A   Bedeckt
12:50 AM 44.6 °F 38.1 °F 44.6 °F 100% 30.30 inch 1.5 mi West 13.8 mph - N/A   Leichtes Nieseln
1:20 AM 44.6 °F 38.8 °F 44.6 °F 100% 30.30 inch - West-Südwest 11.5 mph - N/A   Bedeckt
1:50 AM 44.6 °F 38.8 °F 44.6 °F 100% 30.30 inch 3.7 mi West-Südwest 11.5 mph - N/A   Bedeckt
2:20 AM 44.6 °F 38.4 °F 44.6 °F 100% 30.27 inch 5.0 mi West-Südwest 12.7 mph - N/A   Wolkig
2:50 AM 44.6 °F 38.8 °F 44.6 °F 100% 30.27 inch 5.0 mi West-Südwest 11.5 mph - N/A   Bedeckt
3:20 AM 44.6 °F 38.8 °F 44.6 °F 100% 30.27 inch 5.0 mi West 11.5 mph - N/A Regen Leichte Regenschauer
3:50 AM 46.4 °F 40.7 °F 44.6 °F 93% 30.24 inch 6.2 mi West 12.7 mph - N/A   Wolkig
4:20 AM 46.4 °F 40.7 °F 44.6 °F 93% 30.24 inch 6.2 mi West 12.7 mph - N/A   Wolkig
4:50 AM 46.4 °F 40.7 °F 44.6 °F 93% 30.24 inch 6.2 mi West 12.7 mph - N/A   Wolkig
5:20 AM 46.4 °F 41.1 °F 44.6 °F 93% 30.21 inch 6.2 mi West 11.5 mph - N/A   Wolkig
5:50 AM 46.4 °F 41.1 °F 44.6 °F 93% 30.21 inch 6.2 mi West 11.5 mph - N/A   Wolkig
6:20 AM 46.4 °F 40.7 °F 44.6 °F 93% 30.21 inch 6.2 mi West 12.7 mph - N/A   Wolkig
6:50 AM 46.4 °F 40.7 °F 44.6 °F 93% 30.18 inch 6.2 mi West 12.7 mph - N/A   Wolkig
7:20 AM 46.4 °F 41.5 °F 44.6 °F 93% 30.18 inch 6.2 mi West 10.4 mph - N/A   Wolkig
7:50 AM 46.4 °F 40.7 °F 44.6 °F 93% 30.18 inch 6.2 mi West 12.7 mph - N/A   Wolkig
8:20 AM 46.4 °F 40.7 °F 44.6 °F 93% 30.18 inch 6.2 mi West 12.7 mph - N/A   Wolkig
8:50 AM 46.4 °F 40.7 °F 46.4 °F 100% 30.18 inch 6.2 mi West 12.7 mph - N/A   Leichtes Nieseln
9:20 AM 48.2 °F - 46.4 °F 93% 30.18 inch 6.2 mi West 12.7 mph - N/A Regen Leichte Regenschauer
9:50 AM 46.4 °F 41.1 °F 46.4 °F 100% 30.18 inch 3.7 mi West 11.5 mph - N/A Regen Leichte Regenschauer
10:20 AM 48.2 °F - 46.4 °F 93% 30.15 inch 5.0 mi West 10.4 mph - N/A Regen Leichte Regenschauer
10:50 AM 48.2 °F - 46.4 °F 93% 30.15 inch 3.7 mi West 11.5 mph - N/A Regen Leichte Regenschauer
11:20 AM 48.2 °F - 46.4 °F 93% 30.15 inch 5.6 mi West 11.5 mph - N/A Regen Leichte Regenschauer
11:50 AM 48.2 °F - 48.2 °F 100% 30.15 inch 5.6 mi West 13.8 mph - N/A Regen Leichte Regenschauer
12:20 PM 48.2 °F - 48.2 °F 100% 30.12 inch 6.2 mi West 11.5 mph - N/A Regen Leichte Regenschauer
12:50 PM 50.0 °F - 48.2 °F 94% 30.12 inch 6.2 mi West 15.0 mph - N/A   Bedeckt
1:20 PM 50.0 °F - 48.2 °F 94% 30.12 inch 6.2 mi West 16.1 mph - N/A   Wolkig
1:50 PM 51.8 °F - 48.2 °F 88% 30.09 inch 6.2 mi West 18.4 mph - N/A   Wolkig
2:20 PM 50.0 °F - 46.4 °F 87% 30.09 inch 6.2 mi West 20.7 mph - N/A   Wolkig
2:50 PM 50.0 °F - 46.4 °F 87% 30.06 inch 6.2 mi West 19.6 mph - N/A   Wolkig
3:20 PM 50.0 °F - 46.4 °F 87% 30.06 inch 6.2 mi West 18.4 mph - N/A   Wolkig
3:50 PM 48.2 °F - 46.4 °F 93% 30.06 inch 6.2 mi West 21.9 mph - N/A   Wolkig
4:20 PM 48.2 °F - 46.4 °F 93% 30.04 inch 1.8 mi West 19.6 mph - N/A   Nieselregen
4:50 PM 46.4 °F 39.0 °F 46.4 °F 100% 30.04 inch - West 19.6 mph - N/A   Nieselregen
5:20 PM 46.4 °F 39.0 °F 44.6 °F 93% 30.04 inch 6.2 mi West-Nordwest 19.6 mph - N/A Regen Leichte Regenschauer
5:50 PM 46.4 °F 39.0 °F 44.6 °F 93% 30.04 inch 6.2 mi West-Nordwest 19.6 mph - N/A Regen Leichte Regenschauer
6:20 PM 46.4 °F 38.1 °F 42.8 °F 87% 30.04 inch 6.2 mi West-Nordwest 24.2 mph - N/A Regen Leichter Regen
6:50 PM 46.4 °F 37.9 °F 41.0 °F 81% 30.04 inch 6.2 mi West-Nordwest 25.3 mph - N/A   Wolkig
7:20 PM 44.6 °F 35.7 °F 41.0 °F 87% 30.04 inch 6.2 mi West-Nordwest 24.2 mph - N/A   Wolkig
7:50 PM 44.6 °F 35.7 °F 39.2 °F 81% 30.04 inch 6.2 mi West-Nordwest 24.2 mph - N/A   Wolkig
8:20 PM 44.6 °F 35.9 °F 39.2 °F 81% 30.04 inch 6.2 mi West-Nordwest 23.0 mph - N/A   Wolkig
8:50 PM 42.8 °F 33.8 °F 37.4 °F 81% 30.04 inch 6.2 mi West-Nordwest 21.9 mph - N/A   Teils Wolkig
9:20 PM 42.8 °F 32.9 °F 35.6 °F 76% 30.04 inch 6.2 mi Nordwest 26.5 mph - N/A   Wolkig
9:50 PM 42.8 °F 33.8 °F 35.6 °F 76% 30.04 inch 6.2 mi Nordwest 21.9 mph - N/A   Wolkig
10:20 PM 42.8 °F 33.8 °F 33.8 °F 70% 30.06 inch 6.2 mi Nordwest 21.9 mph - N/A   Teils Wolkig
10:50 PM 41.0 °F 32.2 °F 33.8 °F 76% 30.06 inch 6.2 mi Nordwest 18.4 mph - N/A   Teils Wolkig
11:20 PM 41.0 °F 32.2 °F 32.0 °F 70% 30.06 inch 6.2 mi Nordwest 18.4 mph - N/A   Wolkig
11:50 PM 41.0 °F 32.5 °F 35.6 °F 81% 30.06 inch 6.2 mi Nordwest 17.3 mph - N/A Regen Leichte Regenschauer